• En España
  • Lista de países
  • Para 7 días
  • Temperatura del agua
  • El tiempo en el mapa
  • Informadores
  • user-avatar
    Iniciar sesión

    Tiempo cada hora Rancagua

    Hoy, 8 Abril, Miércoles

    Tiempo Temperatura Precipitaciones Viento Presión Humedad
    00:00 +17°C° 0 mm 0 mps 717 mmHg 34%
    01:00 +16°C° 0 mm 0 mps 717 mmHg 36%
    02:00 +16°C° 0 mm 0 mps 717 mmHg 36%
    03:00 +16°C° 0 mm 0 mps 717 mmHg 37%
    04:00 +15°C° 0 mm 0 mps 717 mmHg 37%
    05:00 +17°C° 0 mm 0 mps 717 mmHg 34%
    06:00 +18°C° 0 mm 0 mps 717 mmHg 31%
    07:00 +20°C° 0 mm 0 mps 718 mmHg 28%
    08:00 +25°C° 0 mm 1 mps 718 mmHg 25%
    09:00 +27°C° 0 mm 1 mps 718 mmHg 21%
    10:00 +30°C° 0 mm 2 mps 719 mmHg 17%
    11:00 +31°C° 0 mm 2 mps 719 mmHg 17%
    12:00 +31°C° 0 mm 2 mps 719 mmHg 16%
    13:00 +33°C° 0 mm 3 mps 718 mmHg 16%
    14:00 +33°C° 0 mm 3 mps 718 mmHg 17%
    15:00 +31°C° 0 mm 3 mps 718 mmHg 18%
    16:00 +30°C° 0 mm 3 mps 718 mmHg 20%
    17:00 +26°C° 0 mm 2 mps 718 mmHg 28%
    18:00 +22°C° 0 mm 1 mps 718 mmHg 37%
    19:00 +16°C° 0 mm 0 mps 718 mmHg 45%
    20:00 +16°C° 0 mm 0 mps 718 mmHg 47%
    21:00 +15°C° 0 mm 0 mps 718 mmHg 49%
    22:00 +15°C° 0 mm 0 mps 718 mmHg 51%
    23:00 +14°C° 0 mm 0 mps 718 mmHg 52%

    Mañana, 9 Abril, Jueves

    Tiempo Temperatura Precipitaciones Viento Presión Humedad
    00:00 +14°C° 0 mm 0 mps 718 mmHg 52%
    01:00 +14°C° 0 mm 0 mps 718 mmHg 53%
    02:00 +14°C° 0 mm 0 mps 717 mmHg 54%
    03:00 +13°C° 0 mm 0 mps 717 mmHg 54%
    04:00 +13°C° 0 mm 0 mps 717 mmHg 55%
    05:00 +14°C° 0 mm 0 mps 718 mmHg 51%
    06:00 +16°C° 0 mm 0 mps 718 mmHg 47%
    07:00 +17°C° 0 mm 0 mps 718 mmHg 42%
    08:00 +22°C° 0 mm 1 mps 718 mmHg 36%
    09:00 +25°C° 0 mm 1 mps 719 mmHg 29%
    10:00 +28°C° 0 mm 2 mps 719 mmHg 23%
    11:00 +29°C° 0 mm 2 mps 719 mmHg 22%
    12:00 +30°C° 0 mm 2 mps 718 mmHg 20%
    13:00 +31°C° 0 mm 3 mps 718 mmHg 19%
    14:00 +31°C° 0 mm 3 mps 718 mmHg 20%
    15:00 +30°C° 0 mm 3 mps 718 mmHg 21%
    16:00 +30°C° 0 mm 2 mps 718 mmHg 21%
    17:00 +26°C° 0 mm 2 mps 718 mmHg 32%
    18:00 +22°C° 0 mm 1 mps 718 mmHg 42%
    19:00 +18°C° 0 mm 1 mps 718 mmHg 52%
    20:00 +18°C° 0 mm 1 mps 718 mmHg 54%
    21:00 +16°C° 0 mm 1 mps 718 mmHg 57%
    22:00 +15°C° 0 mm 1 mps 718 mmHg 59%
    23:00 +15°C° 0 mm 1 mps 717 mmHg 59%

    Pasado mañana, 10 Abril, Viernes

    Tiempo Temperatura Precipitaciones Viento Presión Humedad
    00:00 +15°C° 0 mm 1 mps 717 mmHg 59%
    01:00 +14°C° 0 mm 1 mps 717 mmHg 60%
    02:00 +14°C° 0 mm 1 mps 717 mmHg 61%
    03:00 +14°C° 0 mm 1 mps 716 mmHg 61%
    04:00 +12°C° 0 mm 0 mps 716 mmHg 62%
    05:00 +14°C° 0 mm 0 mps 716 mmHg 58%
    06:00 +15°C° 0 mm 0 mps 717 mmHg 54%
    07:00 +16°C° 0 mm 0 mps 717 mmHg 49%
    08:00 +20°C° 0 mm 1 mps 717 mmHg 43%
    09:00 +23°C° 0 mm 1 mps 718 mmHg 37%
    10:00 +25°C° 0 mm 2 mps 718 mmHg 31%
    11:00 +27°C° 0 mm 2 mps 718 mmHg 29%
    12:00 +28°C° 0 mm 2 mps 717 mmHg 27%
    13:00 +29°C° 0 mm 3 mps 717 mmHg 24%
    14:00 +29°C° 0 mm 3 mps 717 mmHg 25%
    15:00 +29°C° 0 mm 3 mps 717 mmHg 25%
    16:00 +28°C° 0 mm 3 mps 717 mmHg 26%
    17:00 +25°C° 0 mm 2 mps 717 mmHg 35%
    18:00 +22°C° 0 mm 1 mps 717 mmHg 45%
    19:00 +18°C° 0 mm 1 mps 717 mmHg 54%
    20:00 +16°C° 0 mm 1 mps 717 mmHg 57%
    21:00 +15°C° 0 mm 0 mps 717 mmHg 60%
    22:00 +14°C° 0 mm 0 mps 717 mmHg 63%
    23:00 +13°C° 0 mm 0 mps 717 mmHg 65%

    11 Abril, Sábado

    Tiempo Temperatura Precipitaciones Viento Presión Humedad
    00:00 +13°C° 0 mm 0 mps 717 mmHg 66%
    01:00 +13°C° 0 mm 0 mps 716 mmHg 68%
    02:00 +13°C° 0 mm 0 mps 716 mmHg 67%
    03:00 +13°C° 0 mm 0 mps 716 mmHg 67%
    04:00 +12°C° 0 mm 0 mps 717 mmHg 66%
    05:00 +14°C° 0 mm 0 mps 717 mmHg 62%
    06:00 +15°C° 0 mm 0 mps 717 mmHg 58%
    07:00 +16°C° 0 mm 0 mps 718 mmHg 54%
    08:00 +20°C° 0 mm 1 mps 718 mmHg 48%
    09:00 +22°C° 0 mm 1 mps 718 mmHg 42%
    10:00 +24°C° 0 mm 2 mps 718 mmHg 36%
    11:00 +25°C° 0 mm 2 mps 718 mmHg 34%
    12:00 +26°C° 0 mm 2 mps 718 mmHg 32%
    13:00 +27°C° 0 mm 2 mps 718 mmHg 31%
    14:00 +26°C° 0 mm 2 mps 717 mmHg 33%
    15:00 +25°C° 0 mm 2 mps 717 mmHg 35%
    16:00 +24°C° 0 mm 2 mps 717 mmHg 37%
    17:00 +22°C° 0 mm 1 mps 717 mmHg 44%
    18:00 +20°C° 0 mm 1 mps 717 mmHg 51%
    19:00 +16°C° 0 mm 0 mps 717 mmHg 58%
    20:00 +15°C° 0 mm 0 mps 717 mmHg 61%
    21:00 +15°C° 0 mm 0 mps 717 mmHg 64%
    22:00 +15°C° 0 mm 1 mps 717 mmHg 67%
    23:00 +15°C° 0.1 mm 1 mps 717 mmHg 68%

    12 Abril, Domingo

    Tiempo Temperatura Precipitaciones Viento Presión Humedad
    00:00 +15°C° 0.1 mm 1 mps 717 mmHg 70%
    01:00 +15°C° 0.1 mm 1 mps 717 mmHg 71%
    02:00 +15°C° 0 mm 1 mps 717 mmHg 71%
    03:00 +15°C° 0 mm 1 mps 717 mmHg 72%
    04:00 +15°C° 0 mm 1 mps 717 mmHg 72%
    05:00 +15°C° 0 mm 1 mps 717 mmHg 71%
    06:00 +14°C° 0 mm 0 mps 717 mmHg 70%
    07:00 +14°C° 0 mm 0 mps 718 mmHg 69%
    08:00 +18°C° 0.1 mm 1 mps 718 mmHg 62%
    09:00 +19°C° 0.1 mm 1 mps 718 mmHg 55%
    10:00 +20°C° 0.1 mm 2 mps 718 mmHg 48%
    11:00 +21°C° 0.8 mm 2 mps 718 mmHg 46%
    12:00 +23°C° 0.8 mm 2 mps 718 mmHg 45%
    13:00 +23°C° 0.8 mm 2 mps 718 mmHg 43%
    14:00 +23°C° 0.6 mm 2 mps 718 mmHg 44%
    15:00 +21°C° 0.6 mm 2 mps 718 mmHg 45%
    16:00 +22°C° 0.6 mm 1 mps 718 mmHg 46%
    17:00 +20°C° 0.4 mm 1 mps 718 mmHg 53%
    18:00 +18°C° 0.4 mm 1 mps 719 mmHg 59%
    19:00 +14°C° 0.4 mm 1 mps 719 mmHg 66%
    20:00 +13°C° 0 mm 1 mps 719 mmHg 69%
    21:00 +12°C° 0 mm 0 mps 720 mmHg 71%
    22:00 +11°C° 0 mm 0 mps 720 mmHg 73%
    23:00 +10°C° 0 mm 0 mps 720 mmHg 73%

    13 Abril, Lunes

    Tiempo Temperatura Precipitaciones Viento Presión Humedad
    00:00 +10°C° 0 mm 0 mps 720 mmHg 73%
    01:00 +10°C° 0 mm 0 mps 720 mmHg 73%
    02:00 +10°C° 0 mm 0 mps 719 mmHg 72%
    03:00 +9°C° 0 mm 0 mps 719 mmHg 72%
    04:00 +9°C° 0 mm 0 mps 719 mmHg 71%
    05:00 +10°C° 0 mm 0 mps 719 mmHg 67%
    06:00 +11°C° 0 mm 0 mps 720 mmHg 64%
    07:00 +12°C° 0 mm 0 mps 720 mmHg 61%
    08:00 +15°C° 0 mm 1 mps 720 mmHg 53%
    09:00 +19°C° 0 mm 1 mps 720 mmHg 45%
    10:00 +20°C° 0 mm 2 mps 720 mmHg 37%
    11:00 +23°C° 0 mm 2 mps 720 mmHg 33%
    12:00 +24°C° 0 mm 2 mps 720 mmHg 30%
    13:00 +25°C° 0 mm 2 mps 719 mmHg 26%
    14:00 +25°C° 0 mm 2 mps 719 mmHg 26%
    15:00 +25°C° 0 mm 2 mps 719 mmHg 26%
    16:00 +25°C° 0 mm 2 mps 719 mmHg 26%
    17:00 +22°C° 0 mm 1 mps 719 mmHg 31%
    18:00 +20°C° 0 mm 1 mps 719 mmHg 37%
    19:00 +18°C° 0 mm 1 mps 719 mmHg 42%
    20:00 +16°C° 0 mm 1 mps 719 mmHg 43%
    21:00 +16°C° 0 mm 1 mps 719 mmHg 43%
    22:00 +14°C° 0 mm 0 mps 719 mmHg 44%
    23:00 +14°C° 0 mm 0 mps 719 mmHg 45%
    Mostrar más